McCutcheon Field, NC

2:56 PM EST on December 07, 2016 (GMT -0500)
New River Marine Corps Air Station

Weather History for KNCA - November, 2012

Change the Weather History Date:

Thursday, November 1, 2012

  Actual Average Record
Temperature  
Mean Temperature 50 °F -  
Max Temperature 73 °F 68 °F 82 °F (2010)
Min Temperature 37 °F 46 °F 34 °F (2008)
Degree Days  
Heating Degree Days 15    
Moisture  
Dew Point 37 °F    
Average Humidity 65    
Maximum Humidity 89    
Minimum Humidity 33    
Precipitation  
Precipitation 0.00 in - - ()
Sea Level Pressure  
Sea Level Pressure 29.81 in    
Wind  
Wind Speed 4 mph (West)    
Max Wind Speed 13 mph    
Max Gust Speed 18 mph    
Visibility 10 miles    
Events      
Averages and records for this station are not official NWS values.
T = Trace of Precipitation, MM = Missing Value Source: NWS Daily Summary

Daily Weather History Graph

Daily Weather History Graph

Search for Another Location

Airport or City:

Trip Planner

Search our weather history database for the weather conditions in past years. The results will help you decide how hot, cold, wet, or windy it might be!

Date:

Astronomy

Nov. 01, 2012 Rise Set
Actual Time 7:30 AM EDT 6:15 PM EDT
Civil Twilight 7:04 AM EDT 6:41 PM EDT
Nautical Twilight 6:34 AM EDT 7:11 PM EDT
Astronomical Twilight 6:05 AM EDT 7:40 PM EDT
Moon 8:16 PM EDT (11/1) 9:56 AM EDT (11/1)
Length of Visible Light 11h 36m
Length of Day
10h 44m
Waning Gibbous, 93% of the Moon is Illuminated
Nov 1
Waning Gibbous
Nov 6
Last Quarter
Nov 13
New
Nov 20
First Quarter
Nov 28
Full

Hourly Weather History & Observations

Time (EDT) Temp. Windchill Dew Point Humidity Pressure Visibility Wind Dir Wind Speed Gust Speed Precip Events Conditions
12:56 AM 44.1 °F 42.5 °F 39.0 °F 82% 29.81 in 10.0 mi West 3.5 mph - N/A   Clear
1:56 AM 43.0 °F 41.3 °F 39.0 °F 86% 29.80 in 10.0 mi West 3.5 mph - N/A   Clear
2:56 AM 42.1 °F - 37.9 °F 85% 29.79 in 10.0 mi Calm Calm - N/A   Clear
3:04 AM - - - N/A% - - North - - N/A   Unknown
3:56 AM 41.0 °F - 37.0 °F 86% 29.80 in 10.0 mi Calm Calm - N/A   Clear
4:56 AM 41.0 °F - 37.0 °F 86% 29.80 in 10.0 mi Calm Calm - N/A   Clear
5:56 AM 37.9 °F - 35.1 °F 89% 29.80 in 10.0 mi Calm Calm - N/A   Clear
6:56 AM 37.9 °F - 35.1 °F 89% 29.81 in 7.0 mi Calm Calm - N/A   Clear
7:56 AM 39.0 °F - 36.0 °F 89% 29.83 in 10.0 mi Calm Calm - N/A   Clear
8:56 AM 45.0 °F 42.6 °F 37.9 °F 76% 29.84 in 10.0 mi WSW 4.6 mph - N/A   Clear
9:56 AM 52.0 °F - 39.9 °F 63% 29.84 in 10.0 mi West 6.9 mph - N/A   Partly Cloudy
10:56 AM 55.9 °F - 36.0 °F 47% 29.84 in 10.0 mi West 8.1 mph - N/A   Partly Cloudy
11:56 AM 59.0 °F - 35.1 °F 41% 29.82 in 10.0 mi WNW 11.5 mph 18.4 mph N/A   Clear
12:56 PM 60.8 °F - 35.6 °F 39% 29.79 in 10.0 mi West 9.2 mph - N/A   Clear
1:56 PM 61.0 °F - 33.1 °F 35% 29.76 in 10.0 mi WSW 12.7 mph 17.3 mph N/A   Partly Cloudy
2:56 PM 63.0 °F - 33.1 °F 33% 29.74 in 9.0 mi WSW 11.5 mph - N/A   Partly Cloudy
3:56 PM 62.1 °F - 34.0 °F 35% 29.75 in 9.0 mi WNW 10.4 mph - N/A   Partly Cloudy
4:56 PM 60.1 °F - 35.1 °F 39% 29.76 in 10.0 mi WNW 11.5 mph - N/A   Clear
5:56 PM 57.9 °F - 37.0 °F 46% 29.78 in 10.0 mi NW 6.9 mph - N/A   Mostly Cloudy
6:56 PM 55.0 °F - 36.0 °F 49% 29.81 in 10.0 mi WNW 6.9 mph - N/A   Mostly Cloudy
7:56 PM 51.1 °F - 37.9 °F 61% 29.84 in 10.0 mi West 4.6 mph - N/A   Mostly Cloudy
8:56 PM 46.9 °F - 39.0 °F 74% 29.85 in 10.0 mi WSW 4.6 mph - N/A   Clear
9:56 PM 46.0 °F 43.9 °F 37.9 °F 73% 29.86 in 10.0 mi WSW 4.6 mph - N/A   Clear
10:56 PM 44.1 °F 41.5 °F 37.9 °F 79% 29.88 in 10.0 mi WSW 4.6 mph - N/A   Clear
11:56 PM 43.0 °F 39.5 °F 37.0 °F 80% 29.89 in 10.0 mi WSW 5.8 mph - N/A   Clear